Back to catalog

SL-8 DEB

AliveLEO
NORAD 21406·DEBRIS·🇷🇺 Russia

Launched Feb 12, 1991 from Plesetsk Cosmodrome

Loading…

Next Passes (next 24 hours)

TLE

FreshSource: Space-Track

Epoch: Sep 14, 2026, 04:11 UTC

1 21406U 91009BV  26257.17476166  .00000120  00000-0  10990-2 0  9996
2 21406  73.9161 326.6907 0136620 282.9746  89.3117 12.31854878591585

Track SL-8 DEB in real time with AllMySat

Download on the App Store